This demonstration page uses our WeatherBlox Daily Observations layout. Learn more.

Left ArrowRight Arrow

Hourly Observations for October 17, 2020

Temp ( °F °C ) Dew Point ( °F °C ) Humidity (%) Winds ( mph kmh ) Pressure ( in mb ) Visibility ( mi km ) Precip ( " mm )
12:53 am 00:53 Clear 56 13.3 35 1.7 46 46 SE 9 15 30.04 1017 10 16 0.00 0.00
1:53 am 01:53 Clear 55 12.8 36 2.2 49 49 ESE 8 13 30.01 1016 10 16 0.00 0.00
2:53 am 02:53 Clear 54 12.2 37 2.8 53 53 SE 9 15 29.98 1015 10 16 0.00 0.00
3:53 am 03:53 Clear 52 11.1 36 2.2 55 55 SE 7 11 29.97 1015 10 16 0.00 0.00
4:53 am 04:53 Clear 51 10.6 36 2.2 56 56 ESE 7 11 29.95 1014 10 16 0.00 0.00
5:53 am 05:53 Clear 52 11.1 38 3.3 59 59 SE 8 13 29.94 1014 10 16 0.00 0.00
6:53 am 06:53 Clear 50 10 38 3.3 63 63 SE 6 9 29.96 1014 10 16 0.00 0.00
7:53 am 07:53 Clear 49 9.4 39 3.9 69 69 SE 5 7 29.96 1015 10 16 0.00 0.00
8:53 am 08:53 Sunny 53 11.7 41 5 64 64 SE 8 13 29.96 1015 10 16 0.00 0.00
9:53 am 09:53 Sunny 60 15.6 43 6.1 53 53 SSE 10 17 29.96 1015 10 16 0.00 0.00
10:53 am 10:53 Sunny 66 18.9 43 6.1 43 43 VRB 5 7 29.96 1015 10 16 0.00 0.00
11:53 am 11:53 Sunny 72 22.2 43 6.1 35 35 S 7 11 29.95 1014 10 16 0.00 0.00
12:53 pm 12:53 Sunny 79 26.1 42 5.6 27 27 SSW 8 13 29.91 1013 10 16 0.00 0.00
1:53 pm 13:53 Sunny 83 28.3 40 4.4 22 22 W 12 19 29.88 1012 10 16 0.00 0.00
2:53 pm 14:53 Sunny 88 31.1 40 4.4 18 18 WSW 12 19 29.82 1010 10 16 0.00 0.00
3:53 pm 15:53 Sunny 93 33.9 38 3.3 14 14 SW 12 19 29.77 1008 10 16 0.00 0.00
4:53 pm 16:53 Sunny 93 33.9 36 2.2 13 13 WSW 12 19 29.76 1008 10 16 0.00 0.00
5:53 pm 17:53 Sunny 94 34.4 34 1.1 12 12 SW 14 22 29.73 1007 10 16 0.00 0.00
6:53 pm 18:53 Sunny 91 32.8 31 -0.6 12 12 W 12 19 29.74 1007 10 16 0.00 0.00
7:53 pm 19:53 Clear 83 28.3 31 -0.6 15 15 WSW 9 15 29.76 1008 10 16 0.00 0.00
8:53 pm 20:53 Clear 76 24.4 31 -0.6 19 19 SW 10 17 29.78 1008 10 16 0.00 0.00
9:53 pm 21:53 Clear 71 21.7 31 -0.6 23 23 SW 8 13 29.77 1008 10 16 0.00 0.00
10:53 pm 22:53 Clear 72 22.2 31 -0.6 22 22 SW 10 17 29.77 1008 10 16 0.00 0.00
11:53 pm 23:53 Clear 67 19.4 38 3.3 35 35 ESE 7 11 29.79 1009 10 16 0.00 0.00

Powered by AerisWeather